Regional Weather Roundup
Issued by NWS

Home | Current Version | Previous Version | Text Only | Print | Product List | Glossary Off
Versions: 1 2 3 4 5 6 7 8 9 10 11 12 13 14 15 16 17 18 19 20 21 22 23 24 25 26 27 28 29 30 31 32 33 34 35 36 37 38 39 40 41 42 43 44 45 46 47 48 49 50

000
ASUS43 KFSD 050102
RWRSD

WEATHER ROUNDUP FOR SOUTH DAKOTA
NATIONAL WEATHER SERVICE SIOUX FALLS SD
800 PM CDT FRI SEP 04 2015

NOTE: "FAIR" INDICATES FEW OR NO CLOUDS BELOW 12,000 FEET WITH NO
SIGNIFICANT WEATHER AND/OR OBSTRUCTIONS TO VISIBILITY.


SDZ001>005-009-010-012>017-050200-
NORTHWEST AND NORTH CENTRAL SOUTH DAKOTA

CITY           SKY/WX    TMP DP  RH WIND       PRES   REMARKS
BUFFALO          N/A     79  63  57 N13       29.76R
MOBRIDGE       CLEAR     83  73  72 E9        29.76R
$$

SDZ012>016-024>037-041>051-057-063-072>074-050200-
SOUTHWEST AND SOUTH CENTRAL SOUTH DAKOTA

CITY           SKY/WX    TMP DP  RH WIND       PRES   REMARKS
RAPID CTY ARPT MOCLDY    83  58  42 VRB6      29.79R
PIERRE         MOCLDY    83  66  56 E8        29.73S
CUSTER         MOCLDY    77  41  27 S6        29.97R
PHILIP         MOCLDY    80  67  64 E6        29.75S
PINE RIDGE     PTCLDY    80  51  36 SE6       29.82R
WINNER         FAIR      86  63  45 SE8       29.76S
$$

SDZ004>011-016>023-039-040-050200-
NORTHEAST SOUTH DAKOTA

CITY           SKY/WX    TMP DP  RH WIND       PRES   REMARKS
ABERDEEN       PTCLDY    79  70  74 SE7       29.79R
WATERTOWN      MOCLDY    78  68  71 S10       29.85R
BROOKINGS      MOCLDY    77  70  78 SE12G21   29.87R
$$

SDZ017-020-022-023-036>040-048>070-050200-
SOUTHEAST SOUTH DAKOTA

CITY           SKY/WX    TMP DP  RH WIND       PRES   REMARKS
SIOUX FALLS    MOCLDY    80  71  74 SE15G26   29.84S
HURON          PTCLDY    81  72  74 SE12      29.77R
CHAMBERLAIN    CLOUDY    83  71  66 E6        29.75S
MITCHELL       MOCLDY    81  73  76 SE6       29.77R
YANKTON        CLEAR     82  72  69 SE13      29.80R
$$

ABBREVIATIONS USED IN REMARKS
   TC - TEMPERATURE IN CELSIUS
  WCI - WIND CHILL INDEX
   HX - HEAT INDEX
  VSB - VISIBILITY



USA.gov is the U.S. government's official web portal to all federal, state and local government web resources and services.